A-M-J;H:Mn;Camp;N�;Lon;Lat;Si(OH)4;NO3+NO2;PO4;AT;CT;pH;Sal;SST
2001-07-09;04:26:00;H;1;354.42;48.95;5.89;0.24;0.02;2357.00;2055.20;8.09;35.33;NULL
2001-07-09;08:00:00;H;2;352.97;48.35;0.17;0.08;0.01;2345.30;2046.70;8.08;35.33;17.54
2001-07-09;12:15:00;H;3;351.15;47.61;0.30;0.02;0.02;2366.80;2065.80;8.08;35.55;16.91
2001-07-09;16:19:00;H;4;349.47;46.90;0.20;0.05;0.01;2369.90;2067.40;8.09;35.57;17.51
2001-07-09;19:48:00;H;5;348.04;46.30;0.24;0.02;0.03;2367.00;2062.20;8.09;35.58;17.22
2001-07-10;06:35:00;H;6;343.49;44.88;0.35;0.04;0.01;2380.60;2064.10;8.11;35.66;18.29
2001-07-10;09:23:00;H;7;342.22;44.78;0.55;0.05;0.01;2377.80;2070.70;8.09;35.78;18.20
2001-07-10;13:14:00;H;8;340.47;44.65;0.44;0.06;0.01;2374.20;2065.80;8.09;35.78;18.28
2001-07-10;17:23:00;H;9;338.57;44.50;0.39;0.03;0.01;2378.10;2073.10;8.08;35.82;19.93
2001-07-10;21:03:00;H;10;336.93;44.37;0.93;0.05;0.00;2379.90;2068.40;8.09;35.95;18.50
2001-07-11;06:15:00;H;11;332.72;44.02;0.91;0.08;0.00;2381.80;2061.60;8.10;36.01;19.02
2001-07-11;09:57:00;H;12;331.04;43.90;2.25;0.04;0.00;2378.30;2062.70;8.10;35.84;18.44
2001-07-11;14:13:00;H;13;329.07;43.73;3.19;0.03;0.00;2386.20;2071.40;8.10;36.00;18.75
2001-07-11;18:35:00;H;14;327.29;43.58;2.56;0.00;0.00;2388.60;2065.10;8.11;36.09;19.47
2001-07-11;21:54:00;H;15;325.98;43.48;0.30;0.06;0.00;2387.60;2062.10;8.11;36.06;18.93
2001-07-12;07:19:00;H;16;322.25;43.18;0.14;0.09;0.00;2398.90;2063.90;8.12;36.28;20.84
2001-07-12;10:59:00;H;17;320.77;43.07;0.66;0.03;0.00;2360.70;2050.50;8.10;35.33;20.99
2001-07-12;15:15:00;H;18;319.02;42.91;1.05;0.07;0.01;2317.50;2028.40;8.07;34.69;19.88
2001-07-12;19:24:00;H;19;317.34;42.78;0.26;0.09;0.00;2379.70;2046.10;8.12;35.93;21.96
2001-07-13;08:18:00;H;20;312.15;42.35;0.24;0.06;0.07;2229.50;2011.20;7.98;32.74;17.14
2001-07-13;12:09:00;H;21;310.57;42.22;0.27;0.10;0.08;2247.60;2009.40;8.01;33.05;14.93
2001-07-13;16:20:00;H;22;308.92;42.08;0.51;0.03;0.05;2301.10;2002.80;8.10;34.37;20.44
2001-07-13;20:45:00;H;23;307.35;41.96;0.43;0.08;0.03;2323.50;2012.10;8.11;34.75;22.66
2001-07-13;23:52:00;H;24;306.15;41.85;0.51;0.07;0.02;2328.60;2009.30;8.12;34.96;23.48
2001-07-14;09:40:00;H;25;302.29;41.55;0.34;0.08;0.01;2324.00;2000.80;8.13;34.82;22.03
2001-07-14;12:45:00;H;26;301.22;41.43;0.65;0.03;0.00;2376.50;2025.90;8.15;35.01;24.41
2001-07-14;21:15:00;H;27;299.35;41.28;0.25;0.07;0.00;2326.60;1994.00;8.14;35.20;24.32
2001-07-15;01:01:00;H;28;297.73;41.15;0.54;0.05;0.05;2170.30;1928.20;8.06;31.77;19.91
2001-07-15;10:25:00;H;29;293.65;40.81;0.95;0.08;0.12;2222.50;1986.70;8.03;32.65;19.76
2001-07-15;14:00:00;H;30;292.15;40.68;1.68;0.10;0.16;2217.00;1976.40;8.04;32.44;16.04
2001-07-15;21:24:00;H;31;289.97;40.56;1.30;0.05;0.20;2190.10;1963.80;8.02;32.23;16.89
2001-07-16;02:03:00;H;32;288.63;40.53;0.68;0.06;0.01;2212.00;1919.70;8.13;32.24;22.10
2001-07-17;10:21:00;H;33;285.50;37.66;0.38;0.04;0.00;2148.50;1887.60;8.10;31.23;24.87
2001-07-17;14:06:00;H;34;284.29;36.85;0.10;0.06;0.04;2015.10;1780.30;8.12;27.82;24.37
2001-07-18;10:12:00;H;35;284.90;36.28;0.33;0.07;0.01;2158.90;1880.10;8.12;31.59;25.10
2001-07-18;13:48:00;H;36;285.09;35.15;0.40;0.07;0.00;2388.50;2022.10;8.17;36.35;28.46
2001-07-18;18:25:00;H;37;283.95;34.28;2.22;0.06;0.01;2394.00;2025.90;8.17;36.26;28.22
2001-07-18;22:53:00;H;38;282.54;33.38;0.40;0.00;0.01;2390.70;2031.20;8.16;36.33;27.88
2001-07-19;02:01:00;H;39;281.57;32.76;0.44;0.06;0.00;2394.10;2025.30;8.17;36.37;28.51
2001-07-20;10:14:00;H;40;280.95;29.90;0.90;0.02;0.00;2364.60;2009.20;8.16;36.38;28.14
2001-07-20;13:51:00;H;41;281.73;28.85;1.07;0.04;0.00;2372.60;2008.70;8.17;36.28;28.56
2001-07-20;18:11:00;H;42;282.63;27.61;1.20;0.07;0.00;2368.10;2003.80;8.17;36.25;28.69
2001-07-20;22:38:00;H;43;283.55;26.33;1.07;0.08;0.00;2384.00;2019.60;8.17;36.56;29.02
2001-07-21;01:52:00;H;44;284.22;25.40;1.11;0.04;0.00;2354.60;1997.50;8.17;36.35;29.24
2001-07-21;11:19:00;H;45;285.35;22.53;1.52;0.06;0.00;2359.70;1992.70;8.18;36.14;29.35
2001-07-21;14:53:00;H;46;285.55;21.45;1.50;0.02;0.00;2351.50;1985.90;8.18;36.07;29.78
2001-07-21;19:20:00;H;47;285.98;20.18;1.41;0.08;0.00;2346.30;1981.90;8.18;36.06;30.12
2001-07-21;23:50:00;H;48;285.12;19.12;1.14;0.06;0.00;2356.60;1992.30;8.18;36.16;30.04
2001-07-22;02:56:00;H;49;284.42;18.40;1.23;0.06;0.00;2352.30;1990.10;8.17;36.09;29.59
2001-07-22;21:14:00;H;50;283.19;17.68;1.35;0.04;0.00;2353.40;1997.10;8.17;36.11;29.02
2001-07-23;01:12:00;H;51;282.70;16.42;3.50;8.59;0.53;2359.60;2000.90;8.17;36.13;28.60
2001-07-23;11:37:00;H;52;281.42;13.03;1.12;0.01;0.02;2361.40;2006.60;8.16;36.15;28.03
2001-07-23;14:59:00;H;53;281.02;11.91;1.07;0.06;0.01;2389.70;2024.20;8.18;36.32;27.81
2001-07-23;20:19:00;H;54;280.39;10.23;0.94;0.06;0.00;2362.70;2002.40;8.17;36.13;28.05
2001-07-25;11:15:00;H;55;277.90;6.25;0.91;0.07;0.00;2166.80;1847.80;8.19;32.52;27.78
2001-07-25;14:51:00;H;56;276.87;5.88;0.96;0.06;0.09;2155.30;1834.30;8.19;32.33;27.87
2001-07-25;18:57:00;H;57;275.62;5.43;1.08;0.07;0.08;2201.70;1881.80;8.17;33.12;27.27
2001-07-25;23:46:00;H;58;274.19;4.93;1.72;0.37;0.14;2207.80;1884.90;8.17;33.14;27.34
2001-07-26;02:45:00;H;59;273.29;4.60;0.28;0.03;0.10;2223.30;1891.50;8.18;33.32;27.47
2001-07-26;12:17:00;H;60;270.37;3.56;2.15;0.03;0.10;2255.60;1928.30;8.16;33.92;26.66
2001-07-26;15:40:00;H;61;269.34;3.20;0.76;0.61;0.15;2265.60;1941.40;8.15;34.05;26.34
2001-07-26;19:56:00;H;62;268.02;2.71;0.93;0.81;0.17;2255.80;1928.40;8.16;33.99;26.38
2001-07-27;00:28:00;H;63;266.57;2.22;1.02;0.36;0.14;2278.00;1957.80;8.14;34.32;25.60
2001-07-27;03:38:00;H;64;265.55;1.85;1.25;1.35;0.23;2302.60;1994.70;8.11;34.62;24.67
2001-07-27;13:25:00;H;65;262.24;0.65;1.46;2.39;0.29;2299.70;2002.40;8.10;34.60;24.17
2001-07-27;16:52:00;H;66;261.05;0.23;6.73;3.61;0.35;2308.70;2032.20;8.06;34.66;23.00
2001-07-27;20:59:00;H;67;259.63;-0.28;6.91;4.83;0.42;2325.90;2077.30;8.00;34.94;21.57
2001-07-28;01:28:00;H;68;258.15;-0.80;6.22;9.58;0.68;2330.60;2080.90;8.00;35.05;22.26
2001-07-28;04:43:00;H;69;257.09;-1.18;5.51;9.52;0.71;2334.60;2077.60;8.01;35.14;22.67
2001-07-28;13:17:00;H;70;254.20;-2.22;2.88;5.79;0.51;2335.20;2065.70;8.04;35.14;23.55
2001-07-28;17:00:00;H;71;252.95;-2.66;3.45;6.56;0.54;2334.30;2062.20;8.04;35.09;23.44
2001-07-28;22:49:00;H;72;251.04;-3.35;3.59;7.08;0.59;2337.00;2056.40;8.05;35.12;23.66
2001-07-29;14:26:00;H;73;245.78;-5.23;2.78;5.94;0.58;2345.80;2079.60;8.02;35.38;24.05
2001-07-29;18:00:00;H;74;244.60;-5.65;2.34;6.22;0.54;2351.30;2076.50;8.04;35.45;24.35
2001-07-29;22:13:00;H;75;243.19;-6.15;3.16;7.08;0.59;2350.90;2070.80;8.05;35.49;24.78
2001-07-30;02:46:00;H;76;241.65;-6.70;5.58;7.10;0.60;2344.20;2054.80;8.06;35.45;25.30
2001-07-30;05:55:00;H;77;240.59;-7.08;3.84;6.03;0.55;2340.40;2034.90;8.09;35.34;25.75
2001-07-30;14:21:00;H;78;237.80;-8.07;2.28;6.20;0.57;2357.10;2042.80;8.10;35.48;25.54
2001-07-30;17:56:00;H;79;236.62;-8.48;4.39;3.47;0.45;2352.70;2027.10;8.12;35.46;26.12
2001-07-30;22:07:00;H;80;235.24;-8.96;2.00;5.38;0.51;2348.20;2027.70;8.11;35.46;26.35
2001-07-31;02:30:00;H;81;233.80;-9.48;1.77;4.73;0.46;2365.40;2024.20;8.14;35.60;26.54
2001-07-31;05:56:00;H;82;232.67;-9.88;1.75;4.47;0.44;2365.30;2018.90;8.15;35.63;26.34
2001-07-31;15:30:00;H;83;229.50;-11.00;1.99;4.14;0.40;2369.70;2017.70;8.16;35.66;26.69
2001-07-31;18:56:00;H;84;228.37;-11.40;1.57;3.82;0.38;2372.00;2020.70;8.16;35.66;26.61
2001-07-31;23:14:00;H;85;226.93;-11.90;1.70;3.40;0.38;2388.70;2026.90;8.17;35.95;26.81
2001-08-01;03:27:00;H;86;225.54;-12.40;1.33;3.04;0.33;2370.70;2019.20;8.15;35.79;26.95
2001-08-01;06:53:00;H;87;224.37;-12.80;3.26;3.43;0.36;2377.50;2021.30;8.16;35.76;27.12
2001-08-01;16:20:00;H;88;221.20;-13.90;1.24;0.22;0.22;2401.20;2017.30;8.19;36.22;27.29
2001-08-01;19:56:00;H;89;220.00;-14.32;0.72;0.00;0.14;2407.30;2020.50;8.20;36.21;27.39
2001-08-02;00:08:00;H;90;218.63;-14.90;1.13;0.00;0.18;2408.10;2024.50;8.19;36.28;27.36
2001-08-02;04:39:00;H;91;217.15;-15.55;0.88;0.02;0.12;2413.70;2027.80;8.20;36.29;27.40
2001-08-02;07:43:00;H;92;216.14;-15.98;0.97;0.04;0.14;2410.50;2028.60;8.20;36.24;27.34
2001-08-02;16:30:00;H;93;213.17;-16.93;1.01;0.03;0.14;2398.60;2017.70;8.19;36.13;27.58
2001-08-02;20:10:00;H;94;211.87;-17.20;0.76;0.03;0.09;2389.70;2008.70;8.20;36.05;27.21
2001-08-05;01:55:00;H;95;209.27;-18.20;0.82;0.03;0.10;2373.80;1995.20;8.20;35.86;27.11
2001-08-05;06:21:00;H;96;207.87;-19.02;0.77;0.02;0.09;2371.70;1999.30;8.19;35.83;26.34
2001-08-05;16:17:00;H;97;204.73;-20.81;0.69;0.02;0.07;2348.50;1988.00;8.18;35.53;24.46
2001-08-05;20:04:00;H;98;203.50;-21.51;0.79;0.02;0.09;2359.20;1989.90;8.18;35.72;25.48
2001-08-05;23:57:00;H;99;202.27;-22.23;0.65;0.02;0.05;2340.60;1983.40;8.17;35.45;23.59
2001-08-06;04:35:00;H;100;200.78;-23.07;0.55;0.02;0.03;2340.30;1984.00;8.17;35.42;23.45
2001-08-06;07:43:00;H;101;199.78;-23.63;0.66;0.01;0.03;2342.40;1994.50;8.16;35.39;22.55
2001-08-06;17:29:00;H;102;196.68;-25.38;0.52;0.01;0.01;2330.60;1989.00;8.15;35.31;21.64
2001-08-06;21:01:00;H;103;195.62;-25.95;0.57;0.01;0.01;2329.20;1987.60;8.15;35.27;21.55
2001-08-07;01:07:00;H;104;194.37;-26.65;0.47;0.01;0.00;2318.60;1982.30;8.15;35.17;21.02
2001-08-07;05:25:00;H;105;192.98;-27.40;0.48;0.01;0.00;2335.80;2003.40;8.14;35.38;20.26
2001-08-07;08:50:00;H;106;191.87;-28.00;0.36;0.01;0.00;2338.60;2001.50;8.15;35.38;20.87
2001-08-07;18:24:00;H;107;188.62;-29.75;5.07;0.01;0.00;2342.90;2034.90;8.10;35.52;18.88
2001-08-07;21:47:00;H;108;187.45;-30.38;0.77;0.09;0.03;2344.00;2016.70;8.13;35.47;19.12
2001-08-08;01:59:00;H;109;185.98;-31.13;0.71;0.06;0.06;2354.40;2035.60;8.11;35.55;17.88
2001-08-08;06:26:00;H;110;184.67;-31.85;0.74;0.19;0.08;2361.70;2045.50;8.11;35.56;17.03
2001-08-08;09:41:00;H;111;183.68;-32.35;0.82;0.25;0.08;2364.10;2041.90;8.12;35.56;17.17
2001-08-08;18:33:00;H;112;180.95;-33.75;1.00;0.68;0.09;2362.80;2045.60;8.10;35.57;16.85
2001-08-08;21:55:00;H;113;180.12;-34.30;1.96;0.76;0.13;2363.80;2046.40;8.11;35.57;16.94
2001-08-09;02:08:00;H;114;178.55;-34.96;3.59;0.68;0.18;2366.70;2050.00;8.10;35.53;16.52
2001-08-08;18:07:00;H;115;175.32;-36.40;1.55;0.04;0.20;2339.90;2048.20;8.07;35.14;14.56
2001-08-11;02:42:00;H;116;175.02;-36.48;1.60;2.16;0.19;2309.90;2023.90;8.07;34.72;14.41
2001-08-11;06:41:00;H;117;174.43;-35.17;0.95;1.45;0.13;2352.70;2045.30;8.09;35.44;15.74
2001-08-11;09:36:00;H;118;173.85;-34.30;0.82;1.19;0.11;2369.30;2049.00;8.10;35.58;16.93
2001-08-11;18:37:00;H;119;172.08;-31.66;0.85;1.14;0.11;2374.60;2031.50;8.13;35.65;17.95
2001-08-11;21:45:00;H;120;171.45;-30.68;0.49;0.02;0.04;2378.90;2033.50;8.14;35.38;18.23
2001-08-12;02:04:00;H;121;170.51;-29.37;0.32;0.01;0.01;2362.40;2007.70;8.16;35.61;19.89
2001-08-12;06:40:00;H;122;169.71;-27.98;5.15;0.07;0.00;2352.30;2001.50;8.16;35.56;20.59
2001-08-12;09:39:00;H;123;169.13;-27.05;0.61;0.01;0.00;2346.00;1987.20;8.17;35.45;20.61
2001-08-12;19:25:00;H;124;167.28;-24.05;3.03;0.03;0.00;2333.70;1977.50;8.18;35.33;21.70
2001-08-12;23:13:00;H;125;166.60;-22.93;NULL;NULL;NULL;2315.80;1985.30;8.14;33.19;22.94
